TimeEDT,TemperatureF,Dew PointF,Humidity,Sea Level PressureIn,VisibilityMPH,Wind Direction,Wind SpeedMPH,Gust SpeedMPH,PrecipitationIn,Events,Conditions,WindDirDegrees,DateUTC
12:15 AM,62.6,55.4,77,30.25,10.0,SSW,10.4,-,N/A,,Clear,210,2013-06-22 04:15:00
12:35 AM,62.6,57.2,82,30.25,10.0,SSW,10.4,-,N/A,,Clear,200,2013-06-22 04:35:00
12:55 AM,62.6,55.4,77,30.25,10.0,SSW,10.4,-,N/A,,Clear,200,2013-06-22 04:55:00
1:15 AM,62.6,57.2,82,30.24,10.0,SSW,10.4,-,N/A,,Clear,200,2013-06-22 05:15:00
1:35 AM,62.6,55.4,77,30.24,10.0,SSW,10.4,-,N/A,,Clear,200,2013-06-22 05:35:00
1:55 AM,62.6,55.4,77,30.24,10.0,SSW,9.2,-,N/A,,Clear,210,2013-06-22 05:55:00
2:15 AM,62.6,55.4,77,30.25,10.0,SSW,9.2,-,N/A,,Clear,210,2013-06-22 06:15:00
2:35 AM,60.8,55.4,82,30.25,10.0,SSW,10.4,-,N/A,,Clear,210,2013-06-22 06:35:00
2:55 AM,62.6,55.4,77,30.25,10.0,SSW,9.2,-,N/A,,Clear,210,2013-06-22 06:55:00
3:15 AM,62.6,55.4,77,30.24,10.0,SSW,10.4,-,N/A,,Clear,210,2013-06-22 07:15:00
3:35 AM,62.6,55.4,77,30.25,10.0,SSW,10.4,-,N/A,,Clear,210,2013-06-22 07:35:00
3:55 AM,60.8,55.4,82,30.24,10.0,SSW,10.4,-,N/A,,Clear,210,2013-06-22 07:55:00
4:15 AM,60.8,55.4,82,30.24,10.0,SSW,10.4,-,N/A,,Clear,210,2013-06-22 08:15:00
4:35 AM,62.6,55.4,77,30.23,10.0,SSW,9.2,-,N/A,,Clear,210,2013-06-22 08:35:00
4:55 AM,62.6,55.4,77,30.23,10.0,SSW,9.2,-,N/A,,Clear,200,2013-06-22 08:55:00
5:15 AM,62.6,55.4,77,30.23,10.0,SSW,10.4,-,N/A,,Clear,200,2013-06-22 09:15:00
5:35 AM,60.8,55.4,82,30.24,10.0,SSW,9.2,-,N/A,,Clear,210,2013-06-22 09:35:00
5:55 AM,62.6,55.4,77,30.24,10.0,SSW,10.4,-,N/A,,Partly Cloudy,210,2013-06-22 09:55:00
6:35 AM,62.6,55.4,77,30.24,10.0,SSW,10.4,-,N/A,,Clear,210,2013-06-22 10:35:00
6:55 AM,64.4,55.4,73,30.24,10.0,SW,10.4,16.1,N/A,,Clear,220,2013-06-22 10:55:00
7:15 AM,64.4,55.4,73,30.24,10.0,SSW,9.2,-,N/A,,Clear,200,2013-06-22 11:15:00
7:35 AM,64.4,55.4,73,30.24,10.0,SSW,10.4,-,N/A,,Clear,210,2013-06-22 11:35:00
7:55 AM,66.2,55.4,68,30.24,10.0,SSW,11.5,-,N/A,,Clear,210,2013-06-22 11:55:00
8:15 AM,66.2,57.2,73,30.23,10.0,SSW,11.5,-,N/A,,Clear,210,2013-06-22 12:15:00
8:35 AM,66.2,57.2,73,30.23,10.0,SSW,11.5,-,N/A,,Partly Cloudy,210,2013-06-22 12:35:00
8:55 AM,68.0,59.0,73,30.23,10.0,SSW,11.5,16.1,N/A,,Partly Cloudy,210,2013-06-22 12:55:00
9:15 AM,68.0,59.0,73,30.23,10.0,SSW,13.8,20.7,N/A,,Clear,210,2013-06-22 13:15:00
9:35 AM,69.8,59.0,68,30.23,10.0,SW,13.8,-,N/A,,Clear,220,2013-06-22 13:35:00
9:55 AM,69.8,59.0,68,30.23,10.0,SW,15.0,20.7,N/A,,Clear,220,2013-06-22 13:55:00
10:15 AM,71.6,60.8,69,30.23,10.0,SSW,10.4,18.4,N/A,,Partly Cloudy,210,2013-06-22 14:15:00
10:35 AM,71.6,59.0,64,30.24,10.0,SW,13.8,-,N/A,,Clear,220,2013-06-22 14:35:00
10:55 AM,71.6,59.0,64,30.24,10.0,SW,13.8,20.7,N/A,,Clear,220,2013-06-22 14:55:00
11:15 AM,71.6,60.8,69,30.24,10.0,SW,15.0,-,N/A,,Clear,220,2013-06-22 15:15:00
11:35 AM,73.4,60.8,65,30.24,10.0,SW,15.0,18.4,N/A,,Clear,220,2013-06-22 15:35:00
11:55 AM,73.4,60.8,65,30.25,10.0,SW,13.8,20.7,N/A,,Scattered Clouds,220,2013-06-22 15:55:00
12:15 PM,73.4,59.0,61,30.25,10.0,SW,17.3,23.0,N/A,,Scattered Clouds,220,2013-06-22 16:15:00
12:35 PM,73.4,59.0,61,30.24,10.0,SSW,18.4,24.2,N/A,,Partly Cloudy,210,2013-06-22 16:35:00
12:55 PM,73.4,59.0,61,30.24,10.0,SSW,15.0,23.0,N/A,,Clear,210,2013-06-22 16:55:00
1:15 PM,73.4,57.2,57,30.24,10.0,SSW,15.0,-,N/A,,Clear,210,2013-06-22 17:15:00
1:35 PM,73.4,57.2,57,30.23,10.0,SSW,13.8,-,N/A,,Clear,200,2013-06-22 17:35:00
1:55 PM,73.4,57.2,57,30.23,10.0,SSW,16.1,23.0,N/A,,Scattered Clouds,210,2013-06-22 17:55:00
2:15 PM,73.4,57.2,57,30.22,10.0,SSW,13.8,21.9,N/A,,Mostly Cloudy,200,2013-06-22 18:15:00
2:35 PM,75.2,57.2,53,30.22,10.0,SSW,13.8,-,N/A,,Scattered Clouds,210,2013-06-22 18:35:00
2:55 PM,75.2,55.4,50,30.22,10.0,SSW,16.1,20.7,N/A,,Clear,210,2013-06-22 18:55:00
3:15 PM,77.0,55.4,47,30.21,10.0,SSW,17.3,20.7,N/A,,Clear,210,2013-06-22 19:15:00
3:35 PM,77.0,53.6,44,30.20,10.0,SSW,17.3,23.0,N/A,,Clear,200,2013-06-22 19:35:00
3:55 PM,77.0,53.6,44,30.19,10.0,SSW,15.0,23.0,N/A,,Clear,200,2013-06-22 19:55:00
4:15 PM,75.2,53.6,47,30.18,10.0,SSW,13.8,-,N/A,,Clear,200,2013-06-22 20:15:00
4:35 PM,75.2,53.6,47,30.18,10.0,South,13.8,-,N/A,,Clear,190,2013-06-22 20:35:00
4:55 PM,75.2,53.6,47,30.17,10.0,SSW,12.7,20.7,N/A,,Clear,200,2013-06-22 20:55:00
5:15 PM,73.4,57.2,57,30.17,10.0,South,13.8,20.7,N/A,,Clear,190,2013-06-22 21:15:00
5:35 PM,71.6,60.8,69,30.17,10.0,South,13.8,24.2,N/A,,Clear,190,2013-06-22 21:35:00
5:55 PM,69.8,59.0,68,30.17,10.0,SSW,13.8,21.9,N/A,,Clear,200,2013-06-22 21:55:00
6:15 PM,69.8,59.0,68,30.17,10.0,SSW,15.0,20.7,N/A,,Clear,200,2013-06-22 22:15:00
6:35 PM,68.0,57.2,68,30.18,10.0,SSW,11.5,-,N/A,,Clear,200,2013-06-22 22:35:00
6:55 PM,66.2,55.4,68,30.17,10.0,SSW,11.5,-,N/A,,Clear,200,2013-06-22 22:55:00
7:15 PM,66.2,55.4,68,30.18,10.0,SSW,10.4,-,N/A,,Clear,210,2013-06-22 23:15:00
7:35 PM,66.2,57.2,73,30.18,10.0,SSW,10.4,-,N/A,,Clear,210,2013-06-22 23:35:00
7:55 PM,64.4,59.0,83,30.17,10.0,SSW,11.5,-,N/A,,Clear,210,2013-06-22 23:55:00
8:15 PM,64.4,59.0,83,30.17,10.0,SSW,12.7,-,N/A,,Clear,210,2013-06-23 00:15:00
8:35 PM,64.4,59.0,83,30.17,10.0,SSW,13.8,-,N/A,,Clear,210,2013-06-23 00:35:00
8:55 PM,64.4,60.8,88,30.18,10.0,SSW,12.7,-,N/A,,Clear,210,2013-06-23 00:55:00
9:15 PM,64.4,60.8,88,30.18,10.0,SSW,12.7,-,N/A,,Clear,210,2013-06-23 01:15:00
9:35 PM,64.4,60.8,88,30.19,10.0,SSW,11.5,-,N/A,,Clear,200,2013-06-23 01:35:00
9:55 PM,62.6,60.8,94,30.19,10.0,SSW,11.5,-,N/A,,Clear,210,2013-06-23 01:55:00
10:15 PM,62.6,60.8,94,30.19,10.0,SSW,11.5,-,N/A,,Clear,210,2013-06-23 02:15:00
10:35 PM,62.6,60.8,94,30.19,10.0,SSW,9.2,-,N/A,,Clear,200,2013-06-23 02:35:00
10:55 PM,62.6,60.8,94,30.20,10.0,SSW,10.4,-,N/A,,Clear,210,2013-06-23 02:55:00
11:15 PM,62.6,60.8,94,30.19,10.0,SSW,10.4,-,N/A,,Clear,200,2013-06-23 03:15:00
11:35 PM,62.6,60.8,94,30.19,10.0,SSW,10.4,-,N/A,,Clear,200,2013-06-23 03:35:00
11:55 PM,62.6,60.8,94,30.19,10.0,SSW,11.5,-,N/A,,Clear,200,2013-06-23 03:55:00